ZSNB

Ningbo Lishe International

Airport
ICAO code
ZSNB
Summary
ICAO Region
APAC
ICAO Territory
Location

Ningbo, Yangtze River,

Coordinates
29° 49' 36" N , 121° 27' 43" E
Metar
ZSNB 241800Z 00000MPS 9999 BKN030 23/23 Q1010 NOSIG

Ningbo Lishe International Airport (IATA: NGB) is the principal airport serving Ningbo, a major city in the Yangtze River Delta region.

Airport map

Aerial View

SKYbrary Partners:

Safety knowledge contributed by: